GFSFLT2_con_mucape_093.txt.gz
CAPE
1119 1115 1239 1210 1532 1215 1302 1377 1054 835 372 89 16 2 94 347 522 634 790 462 347 224 110 94 54 6 0 0 0 0 0 0
1065 928 1439 755 1095 1209 861 780 605 314 127 20 8 0 98 255 196 395 438 364 283 126 52 47 24 0 0 0 0 0 0 0
660 931 1028 893 857 777 673 592 358 195 108 48 7 16 111 138 175 266 294 247 137 64 35 16 0 0 0 0 0 0 0 0
340 339 937 760 552 493 494 407 212 62 57 34 14 21 94 79 126 118 154 151 66 23 23 2 0 0 0 0 0 0 0 0
414 150 408 751 756 443 238 320 168 59 70 28 19 20 38 31 87 77 54 19 0 0 0 0 0 0 0 0 0 0 0 0
503 247 11 198 558 490 235 67 24 26 42 27 19 32 76 50 14 13 3 0 0 0 0 0 0 0 0 0 0 0 0 0
306 170 32 320 440 336 167 80 15 25 25 39 30 33 25 14 10 7 0 0 0 0 0 0 0 0 0 0 0 0 0 0
187 82 3 13 67 143 147 127 39 14 20 19 28 35 58 23 27 32 0 0 0 0 0 0 0 0 0 0 0 0 0 0
148 17 0 0 0 1 2 8 64 107 38 44 39 40 48 19 9 18 0 0 0 0 0 0 0 0 0 0 0 0 0 0
69 8 0 3 1 0 0 14 3 66 130 45 48 43 48 9 4 10 0 0 0 0 0 0 0 0 0 0 0 0 0 0
15 0 1 3 4 3 0 13 31 84 57 42 38 21 51 16 4 4 10 0 3 5 0 0 0 0 0 0 0 0 0 0
0 0 2 3 4 0 0 18 11 11 13 36 43 17 13 14 23 3 23 4 22 15 2 0 0 0 0 0 0 0 0 1
0 2 4 1 0 0 8 7 8 0 0 0 0 13 17 37 11 1 40 25 19 8 0 0 0 0 4 1 0 0 0 4
0 1 5 5 0 5 0 0 0 0 0 0 8 18 9 16 2 17 0 62 57 11 0 0 0 0 0 0 0 0 0 0
10 0 12 2 1 0 0 0 0 0 0 0 10 10 38 23 3 3 53 76 61 2 0 7 0 0 0 0 0 0 0 0
20 0 3 6 0 0 0 0 0 0 0 3 15 13 12 5 2 7 4 78 21 0 16 0 0 0 0 0 11 19 0 0
31 0 2 3 4 0 0 0 0 1 1 0 9 5 3 3 2 1 0 0 0 8 0 0 0 0 0 0 6 32 27 36
1 0 3 4 4 0 0 0 0 2 10 15 3 0 7 10 3 3 4 0 0 0 2 12 9 4 7 0 0 11 20 4
0 0 17 2 3 0 0 0 3 3 2 6 0 0 0 6 1 1 0 1 30 5 16 58 31 31 20 12 15 4 16 0
16 0 13 3 4 0 0 0 2 9 0 0 0 1 0 0 0 0 15 9 26 40 31 9 49 41 18 25 69 89 88 85

GFSFLT2_con_mucape_096.txt.gz
CAPE
1334 1383 1549 1605 1609 1752 2072 1703 1534 1380 820 465 340 158 72 13 64 217 597 610 512 423 350 271 104 3 0 0 0 0 0 0
881 663 605 712 1272 1357 1550 1864 1612 1269 1029 918 315 76 86 42 206 140 408 501 350 293 195 88 4 7 3 0 0 0 0 0
900 659 508 621 937 1257 1067 1512 1403 1152 788 304 68 3 77 45 139 268 327 272 252 140 91 20 10 0 0 0 0 0 0 0
665 736 671 705 765 695 1012 922 1007 502 260 97 2 9 8 86 122 214 165 131 158 58 54 0 0 0 0 0 0 0 0 0
391 481 654 676 553 477 477 846 518 283 144 28 25 43 109 136 135 133 90 83 26 2 27 2 0 0 0 0 0 0 0 0
331 268 787 760 745 298 331 321 245 117 48 27 17 32 110 82 87 49 46 27 0 0 0 0 2 0 0 0 0 0 0 0
380 338 287 434 683 342 201 205 237 101 36 27 27 24 25 65 22 21 27 16 0 0 0 0 0 0 0 0 0 0 0 0
414 326 153 70 286 379 204 139 96 41 20 18 30 18 33 57 3 1 33 1 0 0 0 0 0 0 0 0 0 0 0 0
324 233 159 39 6 235 284 242 177 13 21 18 25 30 56 20 19 17 17 0 0 0 0 0 0 0 0 0 0 0 0 0
260 159 106 3 0 25 107 196 180 83 53 61 15 29 30 10 26 16 0 0 0 0 0 0 0 0 0 0 0 0 0 0
161 164 104 0 0 3 3 3 14 67 49 35 25 18 36 9 7 1 0 0 0 0 0 0 0 0 0 0 0 0 0 0
235 257 67 0 2 3 4 14 39 45 67 48 29 20 11 20 6 8 0 0 0 0 0 0 0 0 0 0 0 0 0 0
246 185 26 0 0 3 4 0 41 100 74 55 67 42 20 24 17 5 7 0 0 0 0 0 0 0 0 0 0 0 0 0
176 159 19 0 0 1 0 1 20 34 47 57 43 14 24 49 35 21 6 5 0 0 0 0 0 0 0 0 0 10 13 2
150 130 16 0 0 0 1 5 0 0 0 1 6 23 31 21 50 24 5 6 0 5 3 1 0 0 1 2 0 0 2 6
194 123 18 0 0 1 0 0 0 0 0 0 0 3 25 54 28 23 2 3 0 40 7 4 0 0 1 2 1 0 0 3
167 80 14 0 0 1 0 0 0 0 0 5 0 3 11 7 12 20 13 5 0 52 4 5 0 0 0 0 21 34 24 12
144 44 10 0 0 0 0 0 0 0 0 0 0 1 5 10 20 4 4 4 24 61 24 5 3 0 0 0 25 69 44 41
144 28 3 0 0 1 0 0 0 0 6 1 3 5 4 2 5 2 2 0 0 15 38 52 2 0 0 0 9 14 24 55
140 14 2 0 0 0 0 0 0 6 5 3 13 4 3 10 0 0 0 0 9 1 5 33 23 0 10 14 9 7 4 16

GFSFLT2_con_mucape_102.txt.gz
CAPE
1094 1438 1808 1909 1910 1828 1800 1488 1342 1059 1147 1392 1479 1405 1381 1606 1523 1333 976 915 1096 967 734 495 280 207 170 114 45 5 0 0
1261 1140 1549 1919 1888 1828 1753 1629 1332 1146 694 772 853 768 751 865 992 892 1071 1037 939 633 433 242 165 132 81 28 0 0 0 0
1364 1182 1129 1281 1639 1825 1804 1618 1474 1331 1158 979 748 384 221 162 311 475 606 470 454 297 194 117 117 50 3 0 0 0 0 0
1430 1407 1359 1120 965 972 1552 1702 1618 1382 1382 1184 825 382 124 300 390 247 473 277 241 239 104 102 64 4 0 0 0 0 0 0
1283 1051 909 783 849 682 1219 1636 1135 1282 1218 1021 858 527 432 431 158 92 118 156 139 152 84 58 51 0 0 0 0 0 0 0
911 761 464 356 355 986 925 871 737 684 1340 1050 840 766 584 159 58 99 137 103 123 83 59 29 11 0 0 0 0 0 0 0
562 686 484 307 358 565 733 360 416 459 643 735 891 502 173 42 33 70 114 69 57 12 57 67 6 1 0 0 0 0 0 0
103 478 580 418 396 354 274 114 215 150 139 171 334 239 78 40 73 47 57 26 26 15 58 118 50 28 7 0 0 0 0 0
31 271 524 480 363 317 350 480 351 40 106 183 239 199 47 26 43 63 21 14 44 54 110 111 86 63 2 0 0 0 0 0
52 258 398 330 341 396 307 311 311 408 36 16 153 71 14 33 97 57 14 40 23 61 87 89 75 15 0 0 0 0 0 0
151 163 409 362 410 419 407 196 355 358 349 152 163 61 33 38 34 43 31 5 32 46 71 85 76 1 0 0 0 0 0 0
105 95 404 400 282 113 127 90 57 465 360 207 76 32 41 52 46 38 38 5 6 44 87 66 52 2 0 0 1 3 0 0
54 111 362 385 214 98 52 28 137 178 310 54 47 38 52 32 42 50 40 7 6 3 68 0 53 2 4 13 19 5 0 0
17 71 338 316 194 93 27 1 3 10 30 87 51 58 38 49 45 8 4 15 5 2 83 78 45 28 24 8 6 0 0 0
2 29 314 282 178 62 8 1 3 1 16 39 23 47 36 67 47 31 4 2 0 1 76 95 27 27 36 0 0 0 0 0
0 21 292 281 122 54 3 0 0 0 0 15 25 32 40 89 21 21 21 18 11 2 18 67 31 9 32 21 0 0 0 0
0 18 306 204 84 34 2 0 0 0 0 0 47 23 8 22 6 59 18 0 0 0 0 1 34 24 24 22 8 3 3 2
2 95 284 121 78 33 1 0 0 0 0 0 0 1 11 12 9 43 49 8 3 6 0 0 8 23 44 45 49 18 4 7
5 129 200 98 69 37 0 0 0 0 0 0 0 0 0 3 7 10 6 27 27 0 0 1 50 55 89 92 54 22 29 26
0 69 144 102 69 32 0 0 0 0 0 0 0 0 0 0 0 21 11 13 14 2 0 0 5 95 93 94 68 23 52 25

GFSFLT2_con_mucape_105.txt.gz
CAPE
1887 1874 1795 1631 1665 1622 1733 1708 1634 1716 1885 1835 1885 1754 1420 1523 1259 1250 1433 1210 1225 1293 1013 685 517 331 290 211 129 76 235 184
1446 2020 1976 2126 2136 1600 1672 1382 1569 1486 1554 1635 1688 1513 1274 1087 1245 1266 1302 1167 985 980 813 565 358 275 256 204 167 65 155 119
1344 1560 2012 1927 2226 2109 1583 1429 1376 1196 1177 1344 1350 1403 1290 1128 1096 804 819 867 1158 894 602 414 257 243 234 222 158 127 107 88
1295 1373 1576 1927 1833 2149 1698 1759 1514 1382 1176 1286 1328 1012 1062 1040 763 506 744 624 683 501 353 300 212 145 152 133 84 84 101 92
1491 1313 1307 1354 1539 1703 1693 1514 1328 1422 1244 1160 868 757 420 523 601 536 727 541 914 201 171 143 82 67 87 36 31 75 73 52
1681 1373 1232 1212 1199 1245 1189 1215 1190 1336 1175 1113 1112 1045 544 295 232 315 365 727 635 139 241 90 41 78 63 0 0 3 24 19
1004 1314 1242 1017 718 733 917 736 752 1267 888 842 1032 885 555 482 288 307 444 580 596 73 86 86 48 67 13 0 0 0 4 16
695 830 910 589 312 567 542 417 994 1103 892 508 844 903 563 326 426 242 303 214 275 66 52 69 11 51 0 0 0 0 0 14
298 554 694 566 436 506 685 794 922 641 565 365 369 383 580 400 172 272 145 71 67 54 61 6 8 34 0 0 0 0 0 12
100 109 427 484 304 334 511 323 227 154 144 75 85 75 95 142 155 50 42 63 17 44 10 8 7 61 58 22 2 0 1 9
97 113 230 269 340 380 421 247 214 180 92 6 46 110 171 137 103 38 35 30 26 4 5 9 3 101 85 2 0 1 1 0
39 153 192 144 325 393 257 255 279 143 73 221 51 2 81 89 49 46 36 22 5 2 4 7 17 93 50 28 2 5 3 29
9 75 119 50 276 311 273 180 274 41 479 87 107 308 126 56 55 33 53 41 2 6 6 0 24 84 28 12 2 3 13 5
1 26 18 130 240 347 346 157 49 51 117 3 132 96 41 49 65 53 47 34 45 8 5 0 56 61 20 13 11 4 17 11
0 2 2 103 198 361 309 149 66 15 112 62 74 54 54 47 41 14 33 5 3 8 2 19 0 17 35 29 14 11 12 22
0 4 3 33 228 379 308 157 68 0 1 29 27 55 54 39 34 32 5 0 0 4 2 0 0 0 40 34 29 7 17 7
0 2 56 18 216 349 272 169 53 0 1 0 8 34 48 41 14 30 4 5 13 19 9 0 0 0 0 25 29 25 18 11
3 0 33 16 143 310 268 146 30 0 1 0 0 17 30 14 3 16 7 8 6 1 4 3 2 0 39 28 40 28 7 11
6 0 24 23 104 298 261 115 30 0 1 1 0 0 7 23 1 14 6 3 5 12 8 4 0 0 33 47 65 59 73 119
7 1 10 17 79 309 199 98 9 1 3 0 0 0 0 5 7 9 5 13 16 8 12 11 0 19 58 90 84 71 79 147

GFSFLT2_con_mucape_108.txt.gz
CAPE
2363 2249 1965 1470 1536 1742 1770 1734 1973 2098 2142 2313 2353 2135 1611 1590 1610 1470 1106 1429 1252 1486 1244 845 807 618 439 312 151 331 524 460
2293 2314 2221 2073 2151 1465 1640 1608 1599 1975 2056 2177 2052 1823 1490 1312 1325 1083 1020 1388 1179 1366 913 660 642 524 381 276 186 301 500 279
2030 2174 2206 2129 2223 1917 1467 1537 1301 1505 1840 1952 1838 2079 1768 1600 1157 949 1077 1039 1079 943 714 669 435 418 321 230 202 531 348 278
1749 2019 2120 2226 2043 2413 2277 2179 1913 2185 1913 1885 2031 1683 1588 1257 990 686 748 593 705 751 660 535 288 197 169 156 698 345 364 200
1662 2048 2172 2186 2127 1958 2267 2238 2343 2316 2214 2132 2045 1712 1581 1487 1612 1003 1002 642 610 854 436 477 166 121 136 127 342 381 270 195
1819 1830 2154 2171 1973 1929 1986 2012 2295 2027 2188 2038 1931 1678 1582 1436 1527 1013 874 760 835 835 281 426 207 85 96 194 206 315 38 87
1785 1586 2145 2081 2113 1740 1649 1882 1858 1744 1725 1866 1790 1435 1435 1269 987 899 887 828 1005 417 676 171 116 56 64 220 184 160 87 79
1747 1653 1965 2066 2113 1486 1643 1612 1445 1730 1653 1435 1578 1621 1140 1443 1147 773 817 924 974 573 623 326 117 65 45 176 161 135 91 56
1430 1937 2022 2134 1885 1464 1485 1279 1214 1465 1144 1410 1295 1222 1296 1180 1214 873 1027 664 617 494 128 182 86 14 98 137 132 122 96 42
753 1052 1644 2041 1721 1313 879 767 942 721 707 1158 909 814 1069 1022 945 754 520 609 179 69 61 9 58 8 69 107 91 101 53 29
192 906 1124 1678 1732 1297 801 778 684 1039 725 458 220 534 707 550 695 282 214 18 30 59 13 17 24 21 62 140 104 92 40 31
0 207 833 1027 1771 1281 571 678 838 781 842 649 655 509 292 465 492 210 99 47 45 20 18 10 7 11 54 106 125 74 54 25
0 19 567 774 1003 632 449 299 604 511 708 544 583 379 490 151 191 153 94 35 25 20 2 0 27 2 0 127 131 84 32 22
0 109 521 763 562 413 501 385 419 359 424 641 306 306 215 27 82 64 38 20 16 11 4 0 2 9 0 0 0 31 58 42
0 116 404 711 677 467 458 421 287 316 266 355 289 165 69 41 79 44 49 15 26 1 15 4 0 4 82 25 0 0 65 54
2 67 302 539 628 379 553 522 291 319 203 86 123 59 25 30 31 41 46 25 20 30 1 3 6 0 9 69 104 51 26 33
41 91 231 200 476 478 585 771 682 546 397 160 19 172 40 29 15 30 14 17 3 1 0 3 5 0 0 0 70 50 75 9
204 165 135 52 142 561 582 926 702 285 81 34 5 35 20 12 4 14 12 17 2 2 2 1 0 0 0 1 29 114 62 36
95 159 69 13 23 575 464 822 486 309 154 21 4 3 16 36 1 24 1 6 4 1 3 0 0 3 0 5 101 110 73 84
13 152 15 5 14 338 289 259 451 225 87 5 7 12 26 3 2 19 2 7 3 1 7 1 0 0 0 0 71 114 99 65

GFSFLT2_con_mucape_111.txt.gz
CAPE
2592 2123 1701 1389 1527 1662 1683 1913 2093 2204 2306 2367 2319 2225 1955 1934 1948 1588 1721 1849 1727 1725 1317 1017 984 879 625 424 245 251 467 556
2497 2496 2161 1998 1817 1485 1557 1599 1819 2010 2166 2206 2030 1690 1689 1470 1414 1322 1490 1364 1601 1498 1066 818 726 568 467 383 218 251 675 370
2091 2293 2291 2352 2240 1850 1444 1536 1452 1768 1873 1726 2020 1956 1757 1649 1351 1057 821 871 1249 1199 842 727 522 389 340 281 215 590 256 271
1601 1950 2000 2097 1853 2332 1981 2012 1994 1774 1879 2230 2490 1875 1794 1633 1324 909 871 858 660 852 511 404 386 547 229 214 308 550 425 229
1035 1869 2079 2035 1630 1926 2056 2157 2142 2104 2097 2107 2137 2186 2265 1812 1936 1748 1497 643 740 609 554 633 629 425 385 212 238 343 116 153
1150 1435 2018 2381 1689 1597 1731 2411 2221 2316 2293 3022 2586 2391 2119 1882 1513 1533 1580 1048 863 955 1197 1006 680 444 433 243 159 135 174 194
1320 1576 2089 2330 2400 1817 1907 2549 2156 2341 2127 2265 2290 1987 1940 1655 1696 1452 1223 953 1011 995 1040 945 640 299 300 196 120 120 106 126
1401 1855 2207 2257 2266 2363 2215 2376 2323 2158 2067 2035 2404 2228 2057 2127 1922 1681 1544 1258 1169 1270 1165 795 496 276 210 98 100 109 111 104
1339 1989 2569 2335 2228 2126 2024 1814 1827 2112 1822 2112 2111 2105 2088 1896 1616 1595 1580 1317 1145 1081 1007 968 658 157 87 98 94 206 127 75
254 1288 2129 2276 2605 2335 2029 1606 1674 1626 1729 1818 1744 1911 1939 1566 1434 1342 1453 1390 1210 880 723 412 181 65 81 72 69 105 150 78
11 1019 1605 2266 2695 2369 2362 1848 1543 1453 1343 1129 1390 1229 1589 1287 1303 1513 1456 970 792 596 133 114 58 55 35 37 59 102 101 39
0 74 1132 1735 2175 2609 2040 1548 1367 1309 1196 1144 1230 1226 1024 1232 1083 1260 988 373 119 84 40 53 18 35 36 32 46 103 86 49
0 0 221 1366 1347 1867 2212 1264 1031 1045 1386 1215 1045 917 820 687 898 652 376 28 75 53 33 2 14 22 33 10 49 91 135 62
0 0 0 258 965 1331 1772 1013 1016 1004 1046 1291 1073 1033 694 607 625 325 48 74 62 43 8 8 23 7 15 0 0 45 114 49
0 0 4 232 789 1315 1000 819 1048 1000 837 1025 995 898 593 721 539 153 34 48 22 18 17 19 1 9 9 0 0 0 0 88
2 0 45 213 814 1132 773 739 542 636 785 790 823 804 663 404 314 18 24 108 20 2 14 5 3 1 12 0 2 0 0 0
0 130 135 222 571 1073 952 616 877 1028 959 895 851 634 371 452 170 4 143 25 26 2 9 14 3 6 0 0 0 0 113 5
0 83 276 261 563 833 986 697 1233 1132 1210 1031 837 590 571 242 97 15 16 27 20 9 1 13 0 0 3 0 0 0 78 110
0 0 178 342 483 461 795 759 1301 1426 1380 1020 528 357 321 144 7 7 4 6 30 6 4 0 4 6 1 2 0 31 57 67
0 0 0 274 305 143 438 592 820 1154 945 624 311 156 179 13 4 4 1 2 4 2 14 5 2 0 0 1 0 20 52 128

GFSFLT2_con_mucape_114.txt.gz
CAPE
1810 1579 1433 1307 1354 1538 1844 2000 2059 1911 2099 2072 2263 2100 1751 1743 1906 1850 1590 1676 1539 1433 1264 1128 1071 996 857 738 555 284 157 423
2326 2022 1723 1612 1437 1261 1512 1735 1949 1951 2073 1914 2177 1974 1708 1558 1575 1494 1418 1481 1356 1434 1048 943 915 785 673 561 318 205 83 319
2557 2313 2019 1899 1731 1445 1273 1437 1651 1854 1983 1985 1972 1973 1789 1672 1443 1209 1264 1182 1156 1354 917 724 684 551 414 408 208 147 321 286
2176 2266 2207 2197 1824 1739 1638 1602 1513 1712 1917 1900 1660 2077 1839 1537 1370 979 922 759 869 869 652 670 522 237 221 220 95 294 157 229
1418 2251 2482 2216 1593 2062 1851 1909 1720 1637 1771 1955 2009 1959 1765 1397 1382 1021 914 629 626 511 313 409 537 489 229 150 155 154 147 197
1055 1943 2427 2289 1844 1959 1942 1756 1924 1775 1768 1788 2041 2039 1872 1737 1452 1297 1110 796 576 563 537 441 646 377 315 290 129 204 94 149
1012 1517 2232 2462 2506 1713 1900 2110 2022 1950 1952 1983 1947 2080 1854 1735 1536 1381 1110 969 690 623 627 717 520 364 440 344 122 75 81 28
1257 1334 2133 2369 2350 2321 1777 2540 2037 2066 2000 2013 2383 2123 1819 1606 1534 1365 1259 1128 933 682 718 610 560 412 319 268 129 72 59 54
1442 1715 2271 2454 2514 2236 2365 1965 2296 1883 2050 1989 2116 2154 2000 1650 1520 1454 1260 985 790 703 612 590 463 298 205 169 73 40 56 67
1441 1650 2445 2417 2401 2342 1988 1978 2086 2159 1872 1673 1764 2059 1959 1577 1376 1310 1234 882 746 689 584 381 295 150 137 99 37 35 35 63
119 1846 2736 2570 2335 2494 2258 1993 1912 1611 1885 1816 1682 1757 1818 1485 1448 1310 1204 808 606 488 429 367 218 120 101 63 29 20 14 58
205 1592 2110 2692 2393 2266 2500 2078 1750 1557 1496 1488 1426 1693 1567 1415 1100 1282 1188 836 491 365 250 296 133 120 83 51 41 21 34 29
0 110 1684 2088 2201 2444 2297 2233 1812 1416 1322 1223 1089 1114 1582 985 901 957 740 478 317 156 92 97 45 62 61 61 50 11 10 38
3 0 0 761 1635 1611 2031 2081 1834 1449 1139 1224 1163 1169 1105 1155 874 564 539 298 53 102 18 18 30 17 29 35 18 0 1 32
0 0 1 43 2 1103 1439 1715 1726 1492 944 681 1286 1078 860 679 535 403 292 220 374 3 37 14 6 2 15 10 0 0 0 1
0 31 31 34 376 428 1324 1276 1250 1036 812 568 1006 1206 984 730 522 411 241 1 9 68 39 5 2 0 0 15 20 1 0 0
9 37 112 92 316 546 1184 1022 870 544 369 398 1181 1192 1092 1014 743 359 69 0 0 4 34 1 0 29 9 0 0 0 0 0
13 0 0 195 328 577 1163 947 733 492 570 456 740 1024 1157 948 717 246 5 2 33 7 12 1 4 3 1 2 17 0 0 1
21 0 0 0 486 315 999 1034 816 665 787 787 610 1008 1064 955 317 147 6 8 3 21 10 2 6 14 17 1 1 3 16 26
0 0 0 0 0 324 397 957 806 756 854 1001 833 754 1009 785 264 53 3 6 23 15 10 21 5 10 0 4 1 6 12 20

GFSFLT2_con_mucape_117.txt.gz
CAPE
927 1101 1193 1456 1641 1814 1834 1821 1856 1910 2017 2073 2143 2037 1846 1880 1771 1823 1587 1384 1373 1317 1179 1114 1052 983 903 768 697 482 255 218
964 994 1016 1064 1301 1603 1728 1778 1833 1706 1907 1813 2077 1915 1575 1648 1701 1612 1541 1241 1220 1172 1047 993 982 907 805 671 575 325 153 178
1239 1130 1021 958 953 1271 1494 1656 1779 1538 1833 1372 1786 1844 1575 1466 1468 1299 1378 1147 1096 942 770 906 915 720 609 522 362 142 174 205
1551 1354 1213 1160 1214 1029 1119 1346 1549 1708 1847 1403 1825 1866 1652 1435 1312 1178 1195 1053 994 839 688 621 738 415 346 196 267 183 215 193
1955 1782 1537 1431 1499 945 965 1028 1228 1449 1659 1754 1625 1669 1700 1459 1215 1025 896 868 742 682 546 296 464 324 152 88 131 94 169 107
2070 1986 1800 1765 1729 1672 1100 1148 1087 1125 1485 1753 1435 1628 1557 1404 1244 995 816 688 563 532 307 270 473 281 102 73 101 86 109 32
1627 1827 1880 1964 1582 1741 1505 1383 1377 1381 1324 1450 1826 1589 1531 1301 1164 1040 954 820 693 553 436 355 367 417 263 200 159 57 39 46
1198 1585 1916 1802 1611 1663 1674 1587 1652 1733 1469 1406 1243 1740 1716 1424 1164 1105 971 908 834 686 498 350 464 392 297 283 277 90 27 13
1239 1436 1697 1688 1440 1703 1532 1738 1728 1708 1603 1640 1478 1589 1800 1535 1302 1147 1068 944 849 634 511 462 388 305 302 507 281 119 40 35
1112 1236 1834 2072 1696 1492 1729 2020 1878 1813 1933 1802 1909 1882 1775 1586 1350 1190 1063 954 831 682 601 498 401 325 281 177 128 82 56 29
926 1331 1719 1990 2174 1760 1494 1700 2149 2051 1789 1770 1689 1915 1867 1734 1456 1235 1114 923 667 484 400 332 305 279 186 131 66 73 53 51
611 1332 1804 1983 2096 2071 1950 1611 1619 1934 1897 1789 1648 1498 1587 1730 1574 1406 1085 907 733 554 486 413 289 226 119 42 49 63 41 25
69 1998 1866 1961 2135 2089 2148 2000 1760 1574 1490 1785 1643 1437 1354 1514 1573 1305 1261 929 656 555 459 704 220 99 39 54 62 60 62 12
2 1817 2319 2102 2065 1932 1814 2174 2177 2071 1650 1303 1513 1512 1262 1149 1834 1542 1364 1090 741 409 506 197 324 152 44 21 29 45 44 10
0 0 1233 2290 2216 2185 2015 1813 2005 2144 1964 1603 1363 1171 1132 980 950 1599 1233 826 443 446 372 201 20 8 33 25 19 0 6 17
0 0 0 0 160 1635 1862 1873 1982 1945 1835 1667 1368 1121 1225 826 753 1215 1081 661 228 9 65 22 26 20 10 31 0 1 13 4
15 2 1 0 0 0 914 1251 1321 1546 1786 1718 1645 1480 1135 1243 1170 673 587 494 278 27 3 169 14 15 5 3 12 4 4 0
0 0 0 0 0 0 799 947 1007 1083 1114 971 780 558 803 1069 1120 1112 977 291 158 38 1 5 18 11 1 2 11 0 9 0
0 0 0 0 0 0 0 503 864 890 848 671 582 305 367 732 763 1032 973 790 425 23 9 16 6 1 1 25 12 7 2 6
0 0 0 0 0 0 0 0 343 858 794 553 428 327 440 514 872 812 1056 783 635 3 9 18 14 8 0 23 34 8 5 19

GFSFLT2_con_mucape_123.txt.gz
CAPE
984 1105 1375 1640 1747 1679 1637 1595 1571 1612 1699 1760 1853 1801 1568 1534 1715 1847 1774 1820 1640 1436 1159 1012 970 921 695 600 561 274 258 296
847 1077 1356 1472 1613 1656 1367 1551 1615 1618 1678 1679 1684 1643 1554 1443 1543 1732 1572 1602 1522 1314 1023 954 923 878 706 452 400 250 205 211
778 1012 1313 1346 1590 1573 1439 1562 1662 1630 1664 1662 1619 1494 1529 1470 1441 1574 1487 1347 1279 1208 949 905 905 845 751 449 336 268 168 172
681 861 1079 1323 1498 1563 1688 1727 1602 1584 1576 1686 1556 1440 1425 1449 1407 1454 1334 1093 1105 876 814 788 831 717 642 458 276 163 117 101
565 710 880 1041 1178 2077 2150 2121 2072 1520 1548 1665 1603 1500 1352 1396 1415 1414 1321 1116 878 841 543 507 691 694 515 358 258 109 130 124
510 581 738 870 960 1567 1657 1969 1889 1443 1743 1361 1411 1518 1419 1316 1265 1337 1338 1105 846 785 544 306 520 595 368 264 186 76 121 123
545 524 531 610 749 699 851 1336 1711 1195 2049 1228 1067 1766 1532 1310 1229 1120 1125 997 951 737 589 320 326 473 410 146 34 72 171 146
662 547 494 514 554 501 524 700 935 1305 1486 1311 1052 1242 1267 1321 1233 1114 1020 908 874 700 593 378 290 235 209 173 115 40 67 69
1310 763 567 558 604 486 414 504 570 582 721 1119 1217 1193 1230 1268 1234 1151 1007 897 752 660 616 505 509 463 381 321 182 74 24 25
1715 1454 935 736 741 831 610 526 547 532 591 806 1045 1190 1107 1035 1137 1232 1105 931 841 775 740 729 711 671 568 364 206 127 69 74
1379 1775 1544 1223 1047 1098 1078 953 858 766 674 661 783 1009 1230 1238 1192 1167 1193 1151 1133 990 923 915 841 734 570 349 253 162 374 210
1374 1598 1845 1709 1507 1197 1310 1304 1283 1261 1091 944 1076 943 1214 1582 1611 1458 1298 1210 1102 1048 1054 981 844 680 516 399 298 455 436 648
1320 1428 1700 1805 1793 1661 1567 1399 1392 1424 1497 1648 1643 1425 1391 1245 1516 1672 1688 1388 1331 1188 1047 956 840 682 405 376 288 187 152 204
307 1161 1324 1645 1790 1770 1535 1521 1478 1495 1678 1754 1744 1695 1677 1503 1297 1516 1666 1809 1902 1313 1059 1398 1381 909 343 309 23 9 46 41
0 365 838 1390 1695 1749 1724 1629 1549 1666 1734 1917 1886 1864 1822 1716 1600 1661 1759 1379 1179 909 1198 1217 1292 520 274 36 54 11 9 14
567 785 1061 1406 1724 1856 1822 1711 1399 1530 1684 2029 1977 1817 1964 1813 1803 1906 1887 1698 1425 901 1180 904 950 875 360 346 72 9 11 12
970 1226 1527 1701 1946 1980 1821 1461 1113 959 1531 1596 1702 1793 1847 1829 1810 1746 1600 1336 1318 1107 1161 987 1130 701 630 399 106 61 41 25
1336 1204 1060 1107 1362 1442 1274 1242 1147 1170 1322 1478 1675 1661 1628 1653 1688 1570 1279 1269 1085 1006 1040 791 758 821 549 507 59 9 31 28
663 704 735 789 755 552 480 472 315 261 476 980 1373 1476 1537 1348 1345 1419 1266 1028 1049 763 437 646 900 906 552 468 215 10 14 15
61 52 51 61 44 18 10 3 0 1 14 21 78 434 978 1116 1116 1074 1138 972 970 741 527 451 455 717 730 807 313 28 3 14

GFSFLT2_con_mucape_129.txt.gz
CAPE
1949 1941 1740 1658 1766 1704 1417 1348 1436 1586 1742 1909 2019 1875 1757 1745 1998 2013 1961 1630 1344 1086 895 804 809 540 433 445 330 391 1024 1001
1850 1921 1956 2031 2024 1683 1403 1304 1361 1488 1560 1688 1736 1607 1618 1578 1834 1871 1749 1386 1095 920 674 686 674 658 463 320 291 214 848 927
1605 1724 1874 1978 1697 1790 1487 1288 1295 1409 1459 1512 1532 1871 1898 1762 1610 1589 1466 1087 869 729 562 581 571 488 512 461 352 564 773 888
1291 1495 1677 1703 1348 1634 1888 1791 1654 1726 1826 1889 1997 1924 1831 1726 1578 1394 1429 1028 726 580 506 525 608 1034 712 280 680 597 695 878
1105 1332 1545 1292 1179 1372 1540 1718 1705 1782 1892 1964 1901 1849 1781 1697 2072 1825 1924 1225 1321 643 704 872 1094 997 969 857 734 652 620 792
1060 1209 1257 1306 1242 1177 1400 1329 1420 1492 1493 1428 1540 1679 1857 1869 1720 2017 1912 1627 1530 1334 1209 923 957 553 952 913 686 638 521 467
773 905 982 903 1181 1067 1055 1252 1693 1607 1791 1304 1384 1298 1353 1505 1756 1797 1789 1590 1485 1332 1014 852 758 676 692 703 599 594 592 597
715 610 637 753 906 1161 1082 1222 1719 1840 1488 2224 1995 1186 1315 1100 1357 1639 1734 1607 1330 1237 990 737 699 638 712 575 550 532 509 521
605 617 999 733 829 1113 1039 1399 1515 1783 1930 2003 2242 1707 1236 1105 1044 1256 1576 1537 1368 1221 1006 682 626 499 600 461 417 414 414 400
587 748 613 1161 971 798 974 1022 845 910 1087 1173 1959 2186 1644 963 1328 984 1396 1392 1341 1207 1055 845 692 551 530 490 379 368 395 384
741 971 1038 1125 959 616 589 619 616 596 504 583 1321 1739 1692 967 1097 1050 1179 1279 1055 1099 779 938 573 386 365 261 168 603 414 354
1364 952 1015 1282 1337 1087 808 454 518 417 482 484 888 1220 1338 1314 1209 749 1181 1069 845 787 758 647 622 614 399 419 460 90 384 663
1863 1408 1077 1116 1257 1247 1039 929 667 652 904 1031 865 839 1160 1425 1118 1199 1050 789 768 748 736 618 573 482 409 345 517 179 127 456
1847 1995 1533 1071 1071 1303 1324 1386 1221 976 1027 982 1015 1119 898 1033 1007 962 729 714 721 767 711 747 705 580 402 347 317 196 109 117
1400 1960 1967 1695 1461 1483 1319 1326 1213 1286 1037 842 948 1015 1125 1182 1099 849 712 798 831 828 868 868 586 492 546 574 256 223 90 46
880 1634 2098 2166 2068 1842 1624 1516 1300 1441 1247 996 985 1097 1121 1027 1120 956 914 843 1034 1056 1074 1080 837 521 434 487 266 91 116 62
95 896 1474 1930 2145 2062 2041 1990 2160 1949 1649 1488 1423 1390 1048 939 746 687 892 879 1052 1169 1268 1222 1164 1154 408 358 356 277 185 171
0 197 942 1244 1554 1712 1914 1714 1728 1749 1623 1440 1634 1116 1062 746 326 8 198 645 961 1045 1154 1246 1041 1132 850 481 270 267 381 331
2 74 355 864 1330 1925 1877 1808 1752 1554 1492 1461 1346 932 670 385 64 61 435 784 829 874 942 914 924 732 683 489 370 379 330 324
66 93 157 364 767 1300 1409 1254 1217 1670 1274 1039 658 427 359 352 348 437 628 803 771 880 1212 902 696 710 806 742 362 172 142 369

GFSFLT2_con_mucape_132.txt.gz
CAPE
2682 2258 1886 1659 1719 1602 1473 1502 1662 1865 2050 2172 2243 2136 1930 1909 1977 1974 1900 1690 1427 1184 985 780 618 477 342 276 365 477 910 883
2752 2560 2342 2247 2117 1496 1390 1386 1516 1712 1913 2080 2114 1919 1782 1823 1945 1939 1710 1437 1178 1025 783 673 473 306 281 197 182 251 778 813
2655 2635 2502 2454 2367 1913 1343 1311 1402 1559 1739 1946 2048 2040 2157 2115 1868 1875 1539 1106 934 800 643 658 483 304 231 219 120 558 576 674
2431 2579 2469 2412 2080 2300 2026 1755 1747 1841 1881 2161 2038 2060 2115 2008 1829 1717 1430 905 716 592 530 550 565 1019 816 302 680 639 734 648
2046 2360 2429 2337 1974 2126 2070 2064 1871 1926 1998 2107 1968 2131 2232 2075 2258 2090 1979 970 1061 699 882 1015 950 1079 1003 852 776 946 702 720
1763 1864 2204 2312 1842 1970 2032 2160 2194 2062 2139 2494 2446 2320 2273 2145 2128 1959 1909 1566 1363 920 830 917 1254 1191 1148 1123 1093 867 738 655
1535 1641 1947 2103 2017 1731 1992 2089 2119 2083 2183 2693 2461 2311 2353 2192 2238 2018 1916 1828 1511 1547 1339 1311 1342 1164 1077 1177 1111 1020 885 651
1199 1448 1728 1830 1804 1849 1935 2082 2050 2048 2107 2274 2502 2326 2359 2328 2268 2110 2286 2131 1748 1705 1575 1487 1300 1155 1128 1076 1009 895 871 764
507 1372 1523 1619 1552 1913 1836 1729 1596 1815 1851 1903 1996 2339 2325 2258 2122 2219 1971 2100 1973 1764 1549 1472 1307 1189 1147 1171 1065 984 852 857
188 824 1251 1420 1477 1709 1771 1697 1625 1548 1841 1937 2002 1870 2215 2104 1917 1940 2028 2262 1906 1843 1662 1509 1267 1212 1223 1139 1069 1017 960 939
0 863 1235 1336 1359 1585 1852 1688 1749 1813 1666 1698 1729 1782 1936 1856 1800 1607 2162 2015 1841 1768 1683 1560 1395 1217 1161 1199 1199 1060 768 739
0 376 1389 1485 1476 1614 1677 1680 1749 1717 1804 1924 1863 1761 2123 1761 1675 1298 1874 1972 1767 1619 1562 1654 1507 1522 988 1014 1205 974 765 596
0 56 1517 1865 1647 1746 1568 1500 1162 1361 1444 1309 1501 1368 1873 1964 1474 1396 1955 1821 1728 1445 1483 1381 1483 1381 1338 818 805 1000 764 639
0 0 1238 1717 1817 1886 1881 1912 1333 1117 1068 1144 1240 1279 1491 1678 1470 1785 1704 1697 1816 1407 1504 1329 1349 1400 1128 1004 857 552 515 856
0 0 566 1603 1746 1851 1766 1978 1419 1124 1201 1328 1595 1587 1351 1609 1411 1672 1648 1581 1512 1438 1322 1160 977 1130 1555 963 1006 769 677 599
0 0 114 1568 1717 1679 1606 1755 1413 1274 1534 1313 1363 1553 1531 1715 1863 1637 1682 1371 1266 1086 1406 1413 1658 1106 1000 1489 1340 979 629 548
0 0 0 1366 1974 1764 1878 1743 1730 1518 1396 1594 1836 1570 1566 1631 1680 1735 1115 1154 833 713 720 1058 1829 1881 1045 1030 1422 742 320 380
6 0 2 1171 1984 2082 2163 1939 2040 2394 2234 2392 2046 1854 1469 1526 1076 827 823 468 121 64 759 877 983 1503 1477 1436 1262 949 752 577
173 438 756 1438 1591 1861 2139 2434 2363 2311 2225 1797 1557 1473 1679 1777 1375 750 525 157 57 3 232 629 825 1027 1479 1689 1750 1497 977 874
9 226 928 1366 1617 1908 1902 1693 1357 1507 1634 1381 1430 1514 1872 1335 1396 925 538 450 327 419 391 634 1089 1033 1221 1694 1822 1663 1261 980

GFSFLT2_con_mucape_138.txt.gz
CAPE
2678 2077 1543 1688 2062 2184 2180 2063 1958 1923 2044 2175 2244 2187 1988 1894 1954 2045 2089 1867 1562 1210 1002 833 734 555 412 289 179 261 240 686
3024 2261 1838 1753 1929 1983 2067 2026 1936 1906 1966 2093 2127 2051 1867 1779 1821 1920 1864 1610 1266 1059 756 625 474 270 202 157 81 107 343 579
3026 2504 2178 1898 1849 1802 1897 1931 1880 1860 1925 2008 2051 2083 1849 1735 1800 1791 1730 1361 1021 866 570 410 215 112 81 57 17 118 418 506
3095 2742 2521 2189 1782 1841 1902 1974 1899 1999 2119 1952 2174 2007 1936 1780 1652 1719 1617 1140 807 700 497 231 128 230 115 79 98 233 278 491
2498 3388 2854 2594 2310 2185 1581 1769 2027 2221 2350 2293 2168 1953 1878 1458 1645 1693 1485 915 721 569 489 381 332 575 441 296 257 424 414 293
466 2952 3262 2861 2683 2500 1977 1756 1721 1911 2123 2392 1981 1797 2082 1749 2096 1963 1644 955 827 642 695 651 736 704 838 709 836 668 427 301
0 941 2813 3180 3214 2682 2392 1953 1884 1865 1998 2228 2019 1910 1841 2005 2092 2070 1659 1195 939 755 767 701 823 1046 938 629 843 587 864 406
0 0 2925 2843 2897 2764 2359 2139 2092 2026 2030 2153 2262 2115 1828 1925 2090 2013 1744 1443 1038 1026 800 839 879 968 733 874 849 758 514 611
0 0 269 2861 2661 2565 2470 2001 2259 1933 2130 2408 2319 2249 2223 1982 1956 2057 1984 1694 1544 1334 1147 1311 1035 809 713 902 785 761 745 552
0 0 0 1691 2450 2436 2260 2199 1862 2065 1928 2507 2536 2281 2263 2165 1973 2067 2211 2136 1848 1696 1663 1266 1327 789 941 808 713 488 571 875
0 0 0 0 2115 2364 2352 2143 2240 1565 2072 2270 2772 2460 2211 2237 2150 2209 2134 2110 2124 1863 1555 1596 1065 1008 1161 963 796 669 648 522
0 0 0 0 5 2118 2029 1938 2002 1852 2016 1813 2739 2664 2249 2187 2173 2055 1924 1975 2017 1597 1674 1611 1196 945 693 556 928 1232 792 742
0 0 0 0 0 941 1592 1609 1779 1724 1805 2020 2436 2430 2337 2314 2258 2117 1893 1926 2054 2038 1753 1746 1269 1481 1083 814 651 845 1077 863
0 0 0 0 0 0 1443 1481 1638 1679 1784 1846 1773 2205 1990 2002 2505 2044 1976 1822 2186 1927 1732 1655 1656 1399 1133 861 645 749 907 849
0 0 0 0 0 0 0 1438 1235 1432 1493 1956 1793 2233 2057 1753 1984 2257 2051 1602 1850 2069 1486 1284 1116 1323 1092 775 489 389 691 763
0 0 0 0 0 0 0 28 1012 1141 1294 1737 2035 2051 2074 1753 1745 1769 1940 1509 1320 1974 1884 1389 1044 1038 1131 1077 954 1024 554 565
0 0 0 0 0 0 0 0 405 989 1421 1457 1958 1995 2202 1778 1617 1668 1788 1714 1421 2010 1868 1515 1136 1058 870 719 678 699 590 503
0 0 0 0 0 0 0 0 2 794 1056 1310 1435 1928 1962 1940 1687 1389 1962 1911 1881 1687 1706 1451 1075 973 844 653 528 533 520 530
0 0 0 0 0 0 2 0 0 97 798 1091 1098 1582 1529 1516 1314 1095 1262 1755 1805 1464 1297 1003 897 832 684 529 484 569 529 512
0 0 0 0 0 0 0 0 0 44 543 980 1008 1162 1585 1633 1303 1208 1365 1630 1584 1514 996 683 633 639 271 209 421 555 482 428

GFSFLT2_con_mucape_141.txt.gz
CAPE
2425 2275 1917 1877 2132 2191 2115 1955 1879 1873 1897 1928 2008 2024 1830 1762 1861 1985 2070 1841 1434 1079 896 765 657 499 333 190 63 183 358 547
2638 2294 1810 1605 1922 2108 2131 2028 1928 1869 1871 1919 1947 1886 1723 1696 1795 1910 1914 1645 1180 922 734 621 484 297 143 61 23 203 409 319
2658 2364 1905 1406 1607 1819 2027 2030 1970 1881 1824 1869 1903 1725 1647 1641 1688 1785 1711 1456 956 735 581 466 288 144 45 17 12 108 493 512
2818 2570 2328 1596 1547 1644 1755 1904 1897 1855 1735 1745 1752 1707 1574 1557 1567 1660 1583 1264 793 616 439 328 170 49 19 16 8 135 359 201
458 2638 2640 2406 1541 1495 1480 1664 1777 1789 1738 1653 1739 1694 1568 1568 1478 1557 1481 1150 664 558 364 203 97 92 37 15 2 159 235 167
0 32 2293 2400 2291 1753 1530 1468 1636 1706 1815 1783 1771 1668 1692 1459 1434 1436 1423 1063 535 467 356 212 142 353 424 358 33 247 386 248
0 0 19 2094 2072 2060 1872 1789 1534 1792 1941 1994 1677 1578 1706 1377 1439 1413 1473 1022 501 409 408 328 384 416 654 709 481 611 341 255
0 0 0 0 1661 1658 1847 2151 1884 1613 1754 2036 2020 1597 1502 1763 1692 1560 1469 1136 627 514 546 416 408 493 687 805 579 509 505 389
0 0 0 0 1059 1752 1726 1702 1785 1843 1526 1808 2011 1601 1598 1701 1764 1844 1705 1399 808 751 529 647 506 536 841 783 590 536 84 369
0 0 0 0 0 384 1335 1339 1500 1560 1552 1666 1940 1783 1662 1766 1662 1890 1796 1568 1410 928 933 742 922 757 777 614 560 293 357 319
0 0 0 0 0 0 336 1109 1186 1423 1489 1638 1951 1846 1814 1746 1537 1656 1774 1774 1365 1151 1219 685 751 830 732 782 697 497 74 142
0 0 0 0 0 0 0 973 914 1105 1301 1412 1874 1965 1760 1853 1679 1632 1870 1857 1722 1561 1317 1179 1156 913 967 760 831 761 448 226
0 0 0 0 0 0 0 0 624 986 1056 1280 1439 1755 1967 1741 1799 1771 1722 1781 1866 1790 1535 1353 1377 1386 656 586 450 766 480 395
0 0 0 0 0 0 0 0 366 885 989 990 1198 1490 1851 1912 1755 1841 1830 1761 1741 1843 1495 1436 1456 1284 960 704 471 376 428 353
0 0 0 0 0 0 0 0 5 420 884 956 977 1355 1572 1746 1703 1772 1869 1771 1590 1602 1575 1301 1251 1355 1105 966 495 360 330 376
0 0 0 0 0 0 0 0 0 0 0 564 694 883 1170 1387 1620 1691 1881 1820 1508 1631 1721 1504 1132 1271 1245 1099 591 255 308 484
0 0 0 0 0 0 0 0 0 0 22 670 688 723 1090 1231 1583 1671 1669 1745 1591 1711 1928 1683 1432 1193 1225 1218 1029 710 748 446
0 0 0 0 0 0 0 0 0 0 0 0 454 518 773 1017 1292 1383 1528 1716 1435 1542 1915 1831 1413 960 1078 804 538 591 626 601
0 0 0 0 0 0 0 0 0 0 0 0 52 248 368 754 850 1140 1448 1636 1714 1562 1573 1700 1677 1384 1125 701 529 565 445 398
0 0 0 0 0 0 0 0 0 0 0 0 0 0 214 461 311 913 1195 1282 1514 1480 1218 1498 1626 1453 1186 1006 648 618 469 454

GFSFLT2_con_mucape_144.txt.gz
CAPE
2202 2185 1990 1862 2048 2081 2013 1871 1776 1719 1744 1831 2003 1851 1648 1704 1799 1857 2002 1852 1436 1141 910 746 657 519 339 173 127 238 266 67
2436 2355 2038 1661 1855 2103 2103 1958 1809 1790 1749 1704 1833 1745 1572 1628 1745 1848 1891 1690 1207 995 761 638 543 338 172 53 152 265 298 310
2624 2438 2261 1862 1604 1897 2116 2080 1953 1851 1792 1704 1729 1650 1514 1549 1650 1801 1798 1566 1060 794 632 535 376 210 84 2 130 290 390 378
1695 2155 2127 2252 1998 1668 1977 1969 1987 1946 1860 1733 1678 1600 1484 1485 1537 1695 1677 1432 947 628 527 405 235 98 38 2 84 262 319 165
0 96 368 1859 1614 1957 1628 1745 2046 2536 1903 1696 1614 1571 1437 1444 1432 1532 1498 1252 802 517 411 288 133 30 3 0 82 118 501 244
0 0 0 0 1055 1682 1402 1447 1480 1706 2460 1767 1709 1597 1409 1326 1288 1312 1302 1168 751 435 312 193 57 16 16 2 0 137 258 194
0 0 0 0 0 572 1184 1400 1417 1450 1581 1719 1600 1536 1413 1272 1184 1140 1346 1047 780 373 281 152 43 18 320 320 181 222 337 363
0 0 0 0 0 0 0 1052 1485 1275 1486 1667 1652 1589 1462 1403 1157 1089 1113 1147 838 309 236 161 66 35 308 592 670 517 512 242
0 0 0 0 0 0 0 213 933 1115 1419 1645 1684 1597 1506 1395 1373 1178 1149 1107 1021 418 208 186 91 72 173 533 661 642 442 393
0 0 0 0 0 0 0 0 0 799 1191 1470 1592 1480 1472 1396 1328 1270 1234 1213 1106 594 221 199 172 81 212 480 754 457 289 308
0 0 0 0 0 0 0 0 0 0 908 1047 1279 1526 1309 1314 1285 1424 1336 1327 1217 979 338 269 329 453 305 462 716 386 139 157
0 0 0 0 0 0 0 0 0 0 19 772 916 1367 1299 1101 1181 1332 1487 1491 1443 1273 672 482 524 526 721 642 553 559 584 44
0 0 0 0 0 0 0 0 0 0 0 26 942 952 1322 1159 1072 1370 1453 1439 1430 1429 1102 744 727 518 619 624 712 702 625 233
0 0 0 0 0 0 0 0 0 0 0 0 534 932 900 912 1052 1250 1231 1272 1316 1308 1177 929 1011 510 467 613 486 392 627 401
0 0 0 0 0 0 0 0 0 0 0 0 114 792 863 934 891 1082 1013 1158 1242 1235 1179 1042 869 721 575 461 234 272 258 230
0 0 0 0 0 0 0 0 0 0 0 0 0 0 620 781 799 876 611 1150 1209 1233 1127 1110 902 724 770 788 431 231 115 133
0 0 0 0 0 0 0 0 0 0 0 0 0 0 111 366 562 782 531 861 1028 1141 1102 1116 971 781 786 818 783 347 189 96
0 0 0 0 0 0 0 0 0 0 0 0 0 0 0 20 395 804 435 348 630 1116 1128 1112 999 937 888 745 855 659 310 202
0 0 0 0 0 0 0 0 0 0 0 0 0 0 3 0 190 430 539 506 83 737 1029 1116 1056 1011 928 860 785 695 532 449
0 0 0 0 0 0 0 0 0 0 0 0 0 0 1 12 0 3 67 189 415 182 896 1033 1020 995 1074 913 805 789 703 573

GFSFLT2_con_mucape_147.txt.gz
CAPE
2116 2156 2060 1961 2123 2150 2052 1997 1808 1689 1736 1852 2013 1920 1673 1711 1787 1815 1981 1844 1446 1084 802 652 618 560 394 227 205 210 204 156
1847 1973 2220 2129 1811 2125 2119 2028 1859 1755 1712 1748 1886 1815 1581 1632 1727 1796 1920 1727 1256 977 660 499 489 357 262 122 142 234 107 120
43 1155 1815 1951 1987 1694 1959 2004 1931 1821 1789 1732 1737 1726 1530 1557 1668 1728 1848 1665 1169 827 597 442 357 210 122 47 163 210 175 156
0 0 0 67 1010 1475 1570 1896 2073 1993 1850 1806 1670 1631 1545 1462 1552 1656 1766 1613 1187 723 538 411 269 80 26 4 160 244 179 237
0 0 0 0 0 432 1330 1490 1535 1974 2662 2256 1952 1740 1550 1426 1426 1560 1651 1539 1207 668 447 344 170 0 0 0 94 248 256 212
0 0 0 0 0 0 309 1439 1193 1397 1454 2170 2163 2048 1878 1301 1526 1365 1820 1469 1177 675 336 270 118 0 0 0 0 76 329 391
0 0 0 0 0 0 0 0 328 884 1316 1335 1610 1605 1600 1733 1548 1577 1859 1640 997 714 278 194 95 0 0 0 0 3 193 272
0 0 0 0 0 0 0 0 0 7 608 1437 1337 1353 1353 1213 1386 1556 1081 1546 982 722 338 123 65 0 0 16 6 0 95 158
0 0 0 0 0 0 0 0 0 0 2 431 1077 1014 1073 1061 1036 1324 1006 1197 1080 653 476 99 31 3 0 192 335 335 63 259
0 0 0 0 0 0 0 0 0 0 0 0 58 891 855 1111 1067 1038 1061 844 1155 604 567 238 19 0 0 6 327 454 519 326
0 0 0 0 0 0 0 0 0 0 0 0 0 93 918 834 997 1084 1110 1021 946 570 665 498 74 2 8 15 149 452 549 380
0 0 0 0 0 0 0 0 0 0 0 0 0 0 36 916 900 1081 1208 1126 948 700 671 646 252 56 39 26 94 466 580 243
0 0 0 0 0 0 0 0 0 0 0 0 0 0 0 462 746 703 984 1130 864 906 638 862 522 153 177 182 268 298 489 387
0 0 0 0 0 0 0 0 0 0 0 0 0 0 0 1 544 810 838 914 557 780 795 536 591 386 224 427 447 488 511 488
0 0 0 0 0 0 0 0 0 0 0 0 0 0 0 0 0 464 682 491 246 198 660 566 457 452 279 323 438 384 408 514
0 0 0 0 0 0 0 0 0 0 0 0 0 0 0 0 0 0 515 589 426 269 554 619 591 483 413 435 430 182 260 340
0 0 0 0 0 0 0 0 0 0 0 0 0 0 0 0 1 8 332 454 364 360 165 662 576 591 402 444 605 351 181 164
0 0 0 0 0 0 0 0 0 0 0 0 0 0 0 0 0 7 66 368 339 299 161 143 502 648 571 481 512 564 431 336
0 0 0 0 0 0 0 0 0 0 0 0 0 0 0 0 0 5 3 144 330 378 222 34 34 72 590 489 580 693 513 536
0 0 0 0 0 0 0 0 0 0 0 0 0 0 0 0 0 0 1 0 55 359 324 134 43 16 406 542 532 665 600 555

GFSFLT2_con_mucape_150.txt.gz
CAPE
1581 1834 1679 1779 1616 1765 2039 1996 1825 1659 1658 1800 1980 1992 1800 1715 1691 1733 1970 2002 1607 1166 884 748 675 598 447 329 302 249 234 115
176 416 1089 1674 1913 1432 1391 1687 1717 1799 1654 1713 1818 1885 1664 1585 1633 1647 1831 1786 1365 998 695 576 537 478 284 160 121 135 124 44
0 0 2 575 1179 1536 1504 1475 1485 1542 1735 1723 1706 1770 1657 1477 1515 1542 1686 1664 1273 857 591 455 440 370 207 50 94 95 103 163
0 0 0 0 0 20 673 1247 1194 1288 1461 1414 1510 1557 1643 1486 1419 1508 1556 1616 1328 790 581 408 382 275 147 0 1 102 132 37
0 0 0 0 0 0 0 49 860 960 1021 1286 1346 1608 1705 1453 1369 1310 1397 1535 1423 974 555 384 318 225 71 0 0 89 167 90
0 0 0 0 0 0 0 0 0 2 635 654 1260 1186 1170 1717 1292 1569 1470 1741 1833 1138 655 349 261 186 57 0 0 32 213 144
0 0 0 0 0 0 0 0 0 0 0 102 702 1213 1181 1155 1219 1137 1195 1492 1804 1240 851 362 193 138 31 0 0 0 106 274
0 0 0 0 0 0 0 0 0 0 0 0 0 48 892 1081 915 819 895 932 965 1329 710 551 160 85 23 0 0 0 3 201
0 0 0 0 0 0 0 0 0 0 0 0 0 0 0 498 848 724 792 818 827 960 976 496 316 86 7 0 0 0 0 82
0 0 0 0 0 0 0 0 0 0 0 0 0 0 0 0 571 696 627 647 700 563 772 448 360 210 41 0 0 49 60 11
0 0 0 0 0 0 0 0 0 0 0 0 0 0 0 0 0 177 731 506 651 542 519 467 134 271 136 23 0 37 270 366
0 0 0 0 0 0 0 0 0 0 0 0 0 0 0 0 0 0 473 848 811 496 554 415 303 191 244 61 4 0 117 335
0 0 0 0 0 0 0 0 0 0 0 0 0 0 0 0 0 0 0 467 671 718 150 192 327 301 234 159 23 0 19 93
0 0 0 0 0 0 0 0 0 0 0 0 0 0 0 0 0 0 0 4 242 568 313 459 494 430 177 141 96 19 48 51
0 0 0 0 0 0 0 0 0 0 0 0 0 0 0 0 0 0 0 0 39 264 558 584 448 459 247 119 92 8 65 141
0 0 0 0 0 0 0 0 0 0 0 0 0 0 0 0 0 0 0 0 15 164 334 385 416 150 156 120 153 148 196 181
0 0 0 0 0 0 0 0 0 0 0 0 0 0 0 0 0 0 0 2 3 102 289 303 105 95 158 242 227 196 202 200
0 0 0 0 0 0 0 0 0 0 0 0 0 0 0 0 0 0 0 0 3 18 267 329 135 88 12 202 266 163 129 228
0 0 0 0 0 0 0 0 0 0 0 0 0 0 0 0 0 0 0 0 1 3 28 252 190 74 0 0 93 158 180 153
0 0 0 0 0 0 0 0 0 0 0 0 0 0 0 0 0 0 0 0 0 0 10 69 224 104 19 9 0 13 124 269

GFSFLT2_con_mucape_156.txt.gz
CAPE
143 470 960 1280 1325 1175 1157 1160 1281 1310 1454 1509 1608 1638 1731 1894 1900 1882 2066 2214 2250 2115 1581 1116 989 948 884 772 649 511 916 1045
0 0 4 542 753 1117 1124 1125 1036 1024 1129 1265 1296 1325 1430 1566 1599 1558 1813 1969 2124 2019 1530 984 795 727 732 705 562 358 894 1062
0 0 0 0 0 0 0 245 701 828 811 843 1076 1899 2024 1762 1638 1511 1511 1601 1788 1904 1632 986 705 612 547 507 408 822 1032 1044
0 0 0 0 0 0 0 0 0 0 117 682 799 755 1387 1678 1428 1290 1236 1313 1459 1695 1623 1143 720 1013 803 377 824 627 913 953
0 0 0 0 0 0 0 0 0 0 0 0 0 1 242 1012 1277 2409 2225 1432 2042 1493 1745 1777 1339 1057 645 725 740 718 784 738
0 0 0 0 0 0 0 0 0 0 0 0 0 0 0 0 136 1276 1220 2054 2080 2106 2313 1983 1506 1251 1019 785 832 716 577 580
0 0 0 0 0 0 0 0 0 0 0 0 0 0 0 0 0 0 303 1170 1403 1872 1947 1828 1606 1446 1261 1012 720 717 613 419
0 0 0 0 0 0 0 0 0 0 0 0 0 0 0 0 0 0 0 0 463 959 1244 1789 1856 1783 1310 1064 807 505 476 487
0 0 0 0 0 0 0 0 0 0 0 0 0 0 0 0 0 0 0 0 2 8 296 1406 1683 1595 1628 1141 863 741 433 375
0 0 0 0 0 0 0 0 0 0 0 0 0 0 0 0 0 0 2 8 3 2 0 506 1007 1486 900 1354 1048 712 537 563
0 0 0 0 0 0 0 0 0 0 0 0 0 0 0 0 0 0 0 0 6 10 5 54 663 1047 1507 1001 1187 891 844 339
0 0 0 0 0 0 0 0 0 0 0 0 0 0 0 0 0 0 0 0 0 0 12 28 4 193 765 945 1206 1185 1100 645
0 0 0 0 0 0 0 0 0 0 0 0 0 0 0 0 0 0 0 0 0 0 0 26 35 68 868 960 761 1127 1286 1122
0 0 0 0 0 0 0 0 0 0 0 0 0 0 0 0 0 0 0 0 0 0 0 0 17 58 125 387 586 642 693 1308
0 0 0 0 0 0 0 0 0 0 0 0 0 0 0 0 0 0 0 0 0 0 0 0 0 4 85 152 209 267 785 759
0 0 0 0 0 0 0 0 0 0 0 0 0 0 0 0 0 0 0 0 0 0 0 0 0 0 0 244 693 612 794 571
0 0 0 0 0 0 0 0 0 0 0 0 0 0 0 0 0 0 0 0 0 0 0 0 0 0 3 0 121 989 344 191
0 0 0 0 0 0 0 0 0 0 0 0 0 0 0 0 0 0 0 0 0 0 0 0 0 1 1 10 14 81 263 260
0 0 0 0 0 0 0 0 0 0 0 0 0 0 0 0 0 0 0 0 0 0 0 0 0 0 0 1 51 41 321 586
0 0 0 0 0 0 0 0 0 0 0 0 0 0 0 0 0 0 0 0 0 0 0 0 0 0 0 1 4 72 219 885